TimeMDT,TemperatureF,Dew PointF,Humidity,Sea Level PressureIn,VisibilityMPH,Wind Direction,Wind SpeedMPH,Gust SpeedMPH,PrecipitationIn,Events,Conditions,WindDirDegrees,DateUTC
12:53 AM,66.0,37.0,34,29.86,10.0,South,5.8,-,N/A,,Clear,170,2013-08-18 06:53:00
1:53 AM,59.0,37.9,46,29.89,10.0,WSW,6.9,-,N/A,,Clear,240,2013-08-18 07:53:00
2:53 AM,70.0,39.0,32,29.87,10.0,WNW,13.8,-,N/A,,Clear,290,2013-08-18 08:53:00
3:53 AM,66.0,39.9,38,29.88,10.0,WNW,9.2,-,N/A,,Clear,290,2013-08-18 09:53:00
4:53 AM,64.9,39.9,40,29.91,10.0,WNW,9.2,-,N/A,,Clear,290,2013-08-18 10:53:00
5:53 AM,61.0,39.9,46,29.94,10.0,WNW,6.9,-,N/A,,Clear,290,2013-08-18 11:53:00
6:53 AM,60.1,39.9,47,29.97,10.0,NW,5.8,-,N/A,,Clear,310,2013-08-18 12:53:00
7:53 AM,64.0,41.0,43,29.99,10.0,NW,9.2,-,N/A,,Clear,320,2013-08-18 13:53:00
8:53 AM,70.0,41.0,35,29.98,10.0,NW,4.6,-,N/A,,Clear,310,2013-08-18 14:53:00
9:53 AM,75.9,42.1,30,29.96,10.0,West,4.6,-,N/A,,Clear,270,2013-08-18 15:53:00
10:53 AM,82.0,39.9,22,29.94,10.0,WNW,3.5,-,N/A,,Clear,290,2013-08-18 16:53:00
11:53 AM,86.0,39.9,20,29.92,10.0,Variable,4.6,-,N/A,,Clear,0,2013-08-18 17:53:00
12:53 PM,89.1,39.9,18,29.91,10.0,Variable,3.5,-,N/A,,Clear,0,2013-08-18 18:53:00
1:41 PM,93.2,30.2,11,30.06,10.0,WNW,21.9,27.6,N/A,,Clear,300,2013-08-18 19:41:00
1:53 PM,93.0,28.9,10,29.90,10.0,NW,17.3,31.1,N/A,,Clear,310,2013-08-18 19:53:00
2:53 PM,95.0,30.9,10,29.85,10.0,West,18.4,27.6,N/A,,Clear,280,2013-08-18 20:53:00
3:53 PM,95.0,33.1,11,29.84,10.0,West,19.6,28.8,N/A,,Clear,280,2013-08-18 21:53:00
4:53 PM,93.0,33.1,12,29.83,10.0,West,18.4,28.8,N/A,,Clear,270,2013-08-18 22:53:00
5:53 PM,93.0,33.1,12,29.83,10.0,WNW,17.3,24.2,N/A,,Clear,290,2013-08-18 23:53:00
6:53 PM,91.0,34.0,13,29.83,10.0,West,13.8,-,N/A,,Clear,280,2013-08-19 00:53:00
7:53 PM,84.9,35.1,17,29.83,10.0,West,6.9,-,N/A,,Clear,270,2013-08-19 01:53:00
8:53 PM,72.0,35.1,26,29.87,10.0,WSW,6.9,-,N/A,,Clear,240,2013-08-19 02:53:00
9:53 PM,72.0,35.1,26,29.89,10.0,WSW,8.1,-,N/A,,Clear,250,2013-08-19 03:53:00
10:53 PM,73.0,37.9,28,29.90,10.0,ENE,6.9,-,N/A,,Clear,60,2013-08-19 04:53:00
11:53 PM,68.0,37.9,33,29.92,10.0,WSW,9.2,-,N/A,,Clear,250,2013-08-19 05:53:00